Location: Dortmund
(51.5019°N, 7.6520°E)
Time: 00:07:22
(UTC+02:00)

ISS - Pass Details

Date: 28 March 2019
Orbit: 408 x 410 km, 51.6° (Epoch: 24 April)

Event Time Altitude Azimuth Distance (km) Brightness Sun altitude
Rises 20:53:58 0° 272° (W) 2,338 1.1 -18.2°
Reaches altitude 10° 20:56:03 10° 273° (W) 1,476 -0.1 -18.5°
Maximum altitude 20:59:22 86° 360° (N) 416 -3.9 -19.0°
Enters shadow 20:59:38 74° 78° (ENE) 431 -3.9 -19.0°
